{"data":{"norad_id":65126,"epoch":"2026-05-25T04:44:30.688224Z","epoch_age_seconds":57933,"freshness":"FRESH","line1":"1 65126U 25170H   26145.19757741  .00001270  00000+0  18574-3 0  9991","line2":"2 65126  49.9657 233.7132 0021324 252.8801 106.9801 14.82075800 43648","mean_motion":14.820758,"eccentricity":0.0021324,"inclination_deg":49.9657,"raan_deg":233.7132,"arg_perigee_deg":252.8801,"mean_anomaly_deg":106.9801,"bstar":0.00018574,"rev_number":4364,"period_min":97.16102239845,"perigee_km":607.85073744157,"apogee_km":637.70824609566,"semimajor_km":7000.9164917686,"source":"CELESTRAK","updated_at":"2026-05-25T13:38:05.139101Z"}}